Time,TemperatureF,DewpointF,PressureIn,WindDirection,WindDirectionDegrees,WindSpeedMPH,WindSpeedGustMPH,Humidity,HourlyPrecipIn,Conditions,Clouds,dailyrainin,SoftwareType,DateUTC
2013-12-04 00:00:00,27.1,25.3,29.69,East,84,0.0,4.0,93,0.00,,,0.12,Wunderground v.1.15,2013-12-04 05:00:00,
2013-12-04 00:05:00,27.2,25.4,29.69,East,84,0.0,4.0,93,0.00,,,0.00,Wunderground v.1.15,2013-12-04 05:05:00,
2013-12-04 00:10:00,27.2,25.4,29.69,East,84,0.0,4.0,93,0.00,,,0.00,Wunderground v.1.15,2013-12-04 05:10:00,
2013-12-04 00:15:00,27.2,25.4,29.69,East,84,0.0,4.0,93,0.00,,,0.00,Wunderground v.1.15,2013-12-04 05:15:00,
2013-12-04 00:20:00,27.3,25.8,29.69,East,84,0.0,4.0,94,0.00,,,0.00,Wunderground v.1.15,2013-12-04 05:20:00,
2013-12-04 00:25:00,27.5,26.0,29.69,East,84,0.0,4.0,94,0.00,,,0.00,Wunderground v.1.15,2013-12-04 05:25:00,
2013-12-04 00:30:00,27.7,26.2,29.70,East,84,0.0,4.0,94,0.00,,,0.00,Wunderground v.1.15,2013-12-04 05:30:00,
2013-12-04 00:35:00,27.5,25.7,29.70,East,84,0.0,4.0,93,0.00,,,0.00,Wunderground v.1.15,2013-12-04 05:35:00,
2013-12-04 00:40:00,27.4,25.6,29.70,East,84,0.0,4.0,93,0.00,,,0.00,Wunderground v.1.15,2013-12-04 05:40:00,
2013-12-04 00:45:00,27.8,26.3,29.70,East,84,0.0,4.0,94,0.00,,,0.00,Wunderground v.1.15,2013-12-04 05:45:00,
2013-12-04 00:50:00,28.0,26.5,29.69,East,84,0.0,4.0,94,0.00,,,0.00,Wunderground v.1.15,2013-12-04 05:50:00,
2013-12-04 00:55:00,27.5,25.5,29.69,East,84,0.0,4.0,92,0.00,,,0.00,Wunderground v.1.15,2013-12-04 05:55:00,
2013-12-04 01:00:00,26.7,24.4,29.69,East,84,0.0,4.0,91,0.00,,,0.00,Wunderground v.1.15,2013-12-04 06:00:00,
2013-12-04 01:05:00,26.3,24.3,29.69,East,84,0.0,4.0,92,0.00,,,0.00,Wunderground v.1.15,2013-12-04 06:05:00,
2013-12-04 01:15:00,26.7,25.2,29.69,East,84,0.0,4.0,94,0.00,,,0.00,Wunderground v.1.15,2013-12-04 06:15:00,
2013-12-04 01:20:00,27.5,26.3,29.69,East,84,0.0,4.0,95,0.00,,,0.00,Wunderground v.1.15,2013-12-04 06:20:00,
2013-12-04 01:25:00,28.2,27.0,29.69,East,84,0.0,4.0,95,0.00,,,0.00,Wunderground v.1.15,2013-12-04 06:25:00,
2013-12-04 01:30:00,28.4,26.9,29.69,East,84,0.0,4.0,94,0.00,,,0.00,Wunderground v.1.15,2013-12-04 06:30:00,
2013-12-04 01:35:00,28.6,27.1,29.70,East,84,0.0,4.0,94,0.00,,,0.00,Wunderground v.1.15,2013-12-04 06:35:00,
2013-12-04 01:40:00,28.7,27.2,29.70,East,84,0.0,4.0,94,0.00,,,0.00,Wunderground v.1.15,2013-12-04 06:40:00,
2013-12-04 01:50:00,28.1,26.3,29.70,East,84,0.0,4.0,93,0.00,,,0.00,Wunderground v.1.15,2013-12-04 06:50:00,
2013-12-04 01:55:00,28.3,26.8,29.70,East,84,0.0,4.0,94,0.00,,,0.00,Wunderground v.1.15,2013-12-04 06:55:00,
2013-12-04 02:00:00,28.5,27.0,29.71,East,84,0.0,4.0,94,0.00,,,0.00,Wunderground v.1.15,2013-12-04 07:00:00,
2013-12-04 02:05:00,28.8,27.3,29.71,East,84,0.0,4.0,94,0.00,,,0.00,Wunderground v.1.15,2013-12-04 07:05:00,
2013-12-04 02:10:00,29.0,27.2,29.71,East,84,0.0,4.0,93,0.00,,,0.00,Wunderground v.1.15,2013-12-04 07:10:00,
2013-12-04 02:15:00,29.0,27.2,29.71,East,84,0.0,4.0,93,0.00,,,0.00,Wunderground v.1.15,2013-12-04 07:15:00,
2013-12-04 02:20:00,29.0,27.2,29.71,East,84,0.0,4.0,93,0.00,,,0.00,Wunderground v.1.15,2013-12-04 07:20:00,
2013-12-04 02:25:00,28.8,26.8,29.72,East,84,0.0,4.0,92,0.00,,,0.00,Wunderground v.1.15,2013-12-04 07:25:00,
2013-12-04 02:30:00,28.7,26.9,29.72,East,84,0.0,6.0,93,0.00,,,0.00,Wunderground v.1.15,2013-12-04 07:30:00,
2013-12-04 02:35:00,28.9,26.9,29.71,East,84,1.0,4.0,92,0.00,,,0.00,Wunderground v.1.15,2013-12-04 07:35:00,
2013-12-04 02:40:00,28.7,26.7,29.71,East,84,1.0,4.0,92,0.00,,,0.00,Wunderground v.1.15,2013-12-04 07:40:00,
2013-12-04 02:45:00,28.9,26.9,29.72,East,84,1.0,1.0,92,0.00,,,0.00,Wunderground v.1.15,2013-12-04 07:45:00,
2013-12-04 02:50:00,29.2,27.2,29.72,East,84,1.0,4.0,92,0.00,,,0.00,Wunderground v.1.15,2013-12-04 07:50:00,
2013-12-04 02:55:00,29.2,26.9,29.71,East,84,1.0,4.0,91,0.00,,,0.00,Wunderground v.1.15,2013-12-04 07:55:00,
2013-12-04 03:01:00,29.2,26.9,29.71,East,84,1.0,4.0,91,0.00,,,0.00,Wunderground v.1.15,2013-12-04 08:01:00,
2013-12-04 03:06:00,29.2,26.6,29.71,East,84,2.0,2.0,90,0.00,,,0.00,Wunderground v.1.15,2013-12-04 08:06:00,
2013-12-04 03:10:00,29.2,26.6,29.71,East,84,1.0,5.0,90,0.00,,,0.00,Wunderground v.1.15,2013-12-04 08:10:00,
2013-12-04 03:16:00,29.3,27.0,29.72,East,84,1.0,1.0,91,0.00,,,0.00,Wunderground v.1.15,2013-12-04 08:16:00,
2013-12-04 03:20:00,29.6,27.3,29.72,East,84,1.0,4.0,91,0.00,,,0.00,Wunderground v.1.15,2013-12-04 08:20:00,
2013-12-04 03:25:00,29.7,27.4,29.72,East,84,1.0,4.0,91,0.00,,,0.00,Wunderground v.1.15,2013-12-04 08:25:00,
2013-12-04 03:30:00,29.5,27.2,29.72,East,84,1.0,4.0,91,0.00,,,0.00,Wunderground v.1.15,2013-12-04 08:30:00,
2013-12-04 03:35:00,29.3,27.0,29.72,East,84,1.0,1.0,91,0.00,,,0.00,Wunderground v.1.15,2013-12-04 08:35:00,
2013-12-04 03:40:00,29.3,27.0,29.72,East,84,0.0,4.0,91,0.00,,,0.00,Wunderground v.1.15,2013-12-04 08:40:00,
2013-12-04 03:45:00,29.3,27.3,29.72,East,84,0.0,4.0,92,0.00,,,0.00,Wunderground v.1.15,2013-12-04 08:45:00,
2013-12-04 03:50:00,29.3,27.3,29.73,East,84,0.0,4.0,92,0.00,,,0.00,Wunderground v.1.15,2013-12-04 08:50:00,
2013-12-04 03:55:00,29.4,27.6,29.73,East,84,0.0,4.0,93,0.00,,,0.00,Wunderground v.1.15,2013-12-04 08:55:00,
2013-12-04 04:00:00,29.3,27.5,29.73,East,84,1.0,4.0,93,0.00,,,0.00,Wunderground v.1.15,2013-12-04 09:00:00,
2013-12-04 04:05:00,29.4,27.6,29.73,East,84,2.0,7.0,93,0.00,,,0.00,Wunderground v.1.15,2013-12-04 09:05:00,
2013-12-04 04:10:00,29.8,28.3,29.73,East,84,4.0,7.0,94,0.00,,,0.00,Wunderground v.1.15,2013-12-04 09:10:00,
2013-12-04 04:15:00,30.0,28.5,29.73,East,84,6.0,6.0,94,0.00,,,0.00,Wunderground v.1.15,2013-12-04 09:15:00,
2013-12-04 04:20:00,30.2,28.7,29.73,East,84,5.0,6.0,94,0.00,,,0.00,Wunderground v.1.15,2013-12-04 09:20:00,
2013-12-04 04:25:00,30.3,28.8,29.73,East,84,4.0,4.0,94,0.00,,,0.00,Wunderground v.1.15,2013-12-04 09:25:00,
2013-12-04 04:30:00,30.4,28.9,29.73,East,84,4.0,4.0,94,0.00,,,0.00,Wunderground v.1.15,2013-12-04 09:30:00,
2013-12-04 04:35:00,30.2,28.7,29.73,East,84,1.0,1.0,94,0.00,,,0.00,Wunderground v.1.15,2013-12-04 09:35:00,
2013-12-04 04:40:00,30.1,28.6,29.73,East,84,0.0,4.0,94,0.00,,,0.00,Wunderground v.1.15,2013-12-04 09:40:00,
2013-12-04 04:45:00,30.1,28.6,29.73,East,84,0.0,4.0,94,0.00,,,0.00,Wunderground v.1.15,2013-12-04 09:45:00,
2013-12-04 04:50:00,30.1,28.6,29.73,East,84,0.0,4.0,94,0.00,,,0.00,Wunderground v.1.15,2013-12-04 09:50:00,
2013-12-04 05:06:00,30.2,28.9,29.73,East,84,0.0,4.0,95,0.00,,,0.00,Wunderground v.1.15,2013-12-04 10:06:00,
2013-12-04 05:11:00,30.2,28.9,29.73,East,84,0.0,4.0,95,0.00,,,0.00,Wunderground v.1.15,2013-12-04 10:11:00,
2013-12-04 05:16:00,30.3,29.0,29.72,East,84,0.0,4.0,95,0.00,,,0.00,Wunderground v.1.15,2013-12-04 10:16:00,
2013-12-04 05:21:00,30.4,29.1,29.73,East,84,0.0,4.0,95,0.00,,,0.00,Wunderground v.1.15,2013-12-04 10:21:00,
2013-12-04 05:25:00,30.4,29.1,29.73,East,84,0.0,4.0,95,0.00,,,0.00,Wunderground v.1.15,2013-12-04 10:25:00,
2013-12-04 05:30:00,30.4,29.1,29.72,East,84,0.0,4.0,95,0.00,,,0.00,Wunderground v.1.15,2013-12-04 10:30:00,
2013-12-04 05:35:00,30.6,29.3,29.73,East,84,0.0,4.0,95,0.00,,,0.00,Wunderground v.1.15,2013-12-04 10:35:00,
2013-12-04 05:40:00,30.7,29.4,29.73,East,84,0.0,4.0,95,0.00,,,0.00,Wunderground v.1.15,2013-12-04 10:40:00,
2013-12-04 05:45:00,30.8,29.5,29.73,East,84,0.0,4.0,95,0.00,,,0.00,Wunderground v.1.15,2013-12-04 10:45:00,
2013-12-04 05:50:00,31.0,29.7,29.73,East,84,0.0,4.0,95,0.00,,,0.00,Wunderground v.1.15,2013-12-04 10:50:00,
2013-12-04 05:55:00,31.2,29.9,29.73,East,84,0.0,4.0,95,0.00,,,0.00,Wunderground v.1.15,2013-12-04 10:55:00,
2013-12-04 06:00:00,31.4,30.4,29.73,East,84,0.0,4.0,96,0.00,,,0.00,Wunderground v.1.15,2013-12-04 11:00:00,
2013-12-04 06:05:00,31.4,30.1,29.74,East,84,0.0,4.0,95,0.00,,,0.00,Wunderground v.1.15,2013-12-04 11:05:00,
2013-12-04 06:10:00,31.5,30.2,29.73,East,84,0.0,4.0,95,0.00,,,0.00,Wunderground v.1.15,2013-12-04 11:10:00,
2013-12-04 06:15:00,31.5,30.2,29.74,East,84,0.0,4.0,95,0.00,,,0.00,Wunderground v.1.15,2013-12-04 11:15:00,
2013-12-04 06:20:00,31.6,30.3,29.73,East,84,0.0,4.0,95,0.00,,,0.00,Wunderground v.1.15,2013-12-04 11:20:00,
2013-12-04 06:25:00,31.6,30.3,29.74,East,84,0.0,4.0,95,0.00,,,0.00,Wunderground v.1.15,2013-12-04 11:25:00,
2013-12-04 06:30:00,31.7,30.4,29.74,East,84,0.0,4.0,95,0.00,,,0.00,Wunderground v.1.15,2013-12-04 11:30:00,
2013-12-04 06:35:00,31.7,30.4,29.74,East,84,0.0,4.0,95,0.00,,,0.00,Wunderground v.1.15,2013-12-04 11:35:00,
2013-12-04 06:40:00,31.8,30.5,29.74,East,84,0.0,4.0,95,0.00,,,0.00,Wunderground v.1.15,2013-12-04 11:40:00,
2013-12-04 06:45:00,31.9,30.6,29.74,East,84,0.0,4.0,95,0.00,,,0.00,Wunderground v.1.15,2013-12-04 11:45:00,
2013-12-04 06:50:00,31.9,30.6,29.74,East,84,0.0,4.0,95,0.00,,,0.00,Wunderground v.1.15,2013-12-04 11:50:00,
2013-12-04 06:55:00,31.9,30.6,29.74,East,84,0.0,4.0,95,0.00,,,0.00,Wunderground v.1.15,2013-12-04 11:55:00,
2013-12-04 07:00:00,31.9,30.6,29.74,East,84,0.0,4.0,95,0.00,,,0.00,Wunderground v.1.15,2013-12-04 12:00:00,
2013-12-04 07:05:00,31.9,30.6,29.74,East,84,0.0,4.0,95,0.00,,,0.00,Wunderground v.1.15,2013-12-04 12:05:00,
2013-12-04 07:10:00,31.9,30.6,29.73,East,84,0.0,4.0,95,0.00,,,0.00,Wunderground v.1.15,2013-12-04 12:10:00,
2013-12-04 07:15:00,31.9,30.9,29.73,East,84,0.0,4.0,96,0.00,,,0.00,Wunderground v.1.15,2013-12-04 12:15:00,
2013-12-04 07:20:00,32.0,31.0,29.73,East,84,0.0,4.0,96,0.00,,,0.00,Wunderground v.1.15,2013-12-04 12:20:00,
2013-12-04 07:25:00,32.1,31.1,29.73,East,84,0.0,4.0,96,0.00,,,0.00,Wunderground v.1.15,2013-12-04 12:25:00,
2013-12-04 07:30:00,32.1,31.1,29.73,East,84,0.0,4.0,96,0.00,,,0.00,Wunderground v.1.15,2013-12-04 12:30:00,
2013-12-04 07:35:00,32.1,31.1,29.73,East,84,0.0,4.0,96,0.00,,,0.00,Wunderground v.1.15,2013-12-04 12:35:00,
2013-12-04 07:40:00,32.1,31.1,29.73,East,84,0.0,4.0,96,0.00,,,0.00,Wunderground v.1.15,2013-12-04 12:40:00,
2013-12-04 07:45:00,32.0,31.0,29.73,East,84,0.0,4.0,96,0.00,,,0.00,Wunderground v.1.15,2013-12-04 12:45:00,
2013-12-04 07:50:00,32.1,31.1,29.73,East,84,0.0,4.0,96,0.00,,,0.00,Wunderground v.1.15,2013-12-04 12:50:00,
2013-12-04 07:55:00,32.1,31.1,29.73,East,84,0.0,4.0,96,0.00,,,0.00,Wunderground v.1.15,2013-12-04 12:55:00,
2013-12-04 08:00:00,32.1,31.1,29.73,East,84,0.0,4.0,96,0.00,,,0.00,Wunderground v.1.15,2013-12-04 13:00:00,
2013-12-04 08:10:00,32.3,31.3,29.74,East,84,0.0,4.0,96,0.00,,,0.00,Wunderground v.1.15,2013-12-04 13:10:00,
2013-12-04 08:15:00,32.4,31.4,29.74,East,84,0.0,4.0,96,0.00,,,0.00,Wunderground v.1.15,2013-12-04 13:15:00,
2013-12-04 08:20:00,32.4,31.4,29.74,East,84,0.0,4.0,96,0.00,,,0.00,Wunderground v.1.15,2013-12-04 13:20:00,
2013-12-04 08:25:00,32.5,31.5,29.74,East,84,0.0,4.0,96,0.00,,,0.00,Wunderground v.1.15,2013-12-04 13:25:00,
2013-12-04 08:30:00,32.6,31.6,29.74,East,84,0.0,4.0,96,0.00,,,0.00,Wunderground v.1.15,2013-12-04 13:30:00,
2013-12-04 08:35:00,32.8,31.8,29.74,East,84,0.0,4.0,96,0.00,,,0.00,Wunderground v.1.15,2013-12-04 13:35:00,
2013-12-04 08:40:00,32.9,31.9,29.74,East,84,0.0,4.0,96,0.00,,,0.00,Wunderground v.1.15,2013-12-04 13:40:00,
2013-12-04 08:50:00,32.9,31.9,29.74,East,84,0.0,4.0,96,0.00,,,0.00,Wunderground v.1.15,2013-12-04 13:50:00,
2013-12-04 08:55:00,33.0,32.0,29.74,East,84,0.0,4.0,96,0.00,,,0.00,Wunderground v.1.15,2013-12-04 13:55:00,
2013-12-04 09:00:00,33.0,32.0,29.74,East,84,0.0,4.0,96,0.00,,,0.00,Wunderground v.1.15,2013-12-04 14:00:00,
2013-12-04 09:05:00,33.1,32.1,29.74,East,84,0.0,4.0,96,0.00,,,0.00,Wunderground v.1.15,2013-12-04 14:05:00,
2013-12-04 09:10:00,33.2,32.2,29.75,East,84,0.0,4.0,96,0.00,,,0.00,Wunderground v.1.15,2013-12-04 14:10:00,
2013-12-04 09:20:00,33.7,32.9,29.75,East,84,0.0,4.0,97,0.00,,,0.00,Wunderground v.1.15,2013-12-04 14:20:00,
2013-12-04 09:25:00,33.8,32.8,29.75,East,84,0.0,4.0,96,0.00,,,0.00,Wunderground v.1.15,2013-12-04 14:25:00,
2013-12-04 09:30:00,33.9,32.9,29.75,East,84,0.0,4.0,96,0.00,,,0.00,Wunderground v.1.15,2013-12-04 14:30:00,
2013-12-04 09:35:00,33.9,32.9,29.75,East,84,0.0,4.0,96,0.00,,,0.00,Wunderground v.1.15,2013-12-04 14:35:00,
2013-12-04 09:40:00,34.1,33.1,29.76,East,84,0.0,4.0,96,0.00,,,0.00,Wunderground v.1.15,2013-12-04 14:40:00,
2013-12-04 09:45:00,34.3,33.5,29.76,East,84,0.0,4.0,97,0.00,,,0.00,Wunderground v.1.15,2013-12-04 14:45:00,
2013-12-04 09:50:00,34.4,33.6,29.76,East,84,0.0,4.0,97,0.00,,,0.00,Wunderground v.1.15,2013-12-04 14:50:00,
2013-12-04 09:55:00,34.5,33.5,29.77,East,84,0.0,4.0,96,0.00,,,0.00,Wunderground v.1.15,2013-12-04 14:55:00,
2013-12-04 10:00:00,34.7,33.7,29.77,East,84,0.0,4.0,96,0.00,,,0.00,Wunderground v.1.15,2013-12-04 15:00:00,
2013-12-04 10:05:00,34.7,33.7,29.77,East,84,0.0,4.0,96,0.00,,,0.00,Wunderground v.1.15,2013-12-04 15:05:00,
2013-12-04 10:10:00,34.8,33.8,29.77,East,84,0.0,4.0,96,0.00,,,0.00,Wunderground v.1.15,2013-12-04 15:10:00,
2013-12-04 10:15:00,35.0,34.0,29.77,East,84,0.0,4.0,96,0.00,,,0.00,Wunderground v.1.15,2013-12-04 15:15:00,
2013-12-04 10:20:00,35.2,34.2,29.77,East,84,0.0,4.0,96,0.00,,,0.00,Wunderground v.1.15,2013-12-04 15:20:00,
2013-12-04 10:30:00,35.3,34.3,29.77,East,84,0.0,4.0,96,0.00,,,0.00,Wunderground v.1.15,2013-12-04 15:30:00,
2013-12-04 10:35:00,35.4,34.4,29.77,East,84,0.0,4.0,96,0.00,,,0.00,Wunderground v.1.15,2013-12-04 15:35:00,
2013-12-04 10:40:00,35.5,34.5,29.76,East,84,0.0,4.0,96,0.00,,,0.00,Wunderground v.1.15,2013-12-04 15:40:00,
2013-12-04 10:45:00,35.6,34.6,29.76,East,84,0.0,4.0,96,0.00,,,0.00,Wunderground v.1.15,2013-12-04 15:45:00,
2013-12-04 10:50:00,35.8,34.8,29.76,East,84,0.0,4.0,96,0.00,,,0.00,Wunderground v.1.15,2013-12-04 15:50:00,
2013-12-04 10:55:00,36.0,35.0,29.75,East,84,0.0,4.0,96,0.00,,,0.01,Wunderground v.1.15,2013-12-04 15:55:00,
2013-12-04 11:00:00,36.4,35.4,29.75,East,84,0.0,4.0,96,0.00,,,0.01,Wunderground v.1.15,2013-12-04 16:00:00,
2013-12-04 11:05:00,36.9,35.9,29.75,East,84,1.0,5.0,96,0.00,,,0.01,Wunderground v.1.15,2013-12-04 16:05:00,
2013-12-04 11:10:00,37.3,36.3,29.75,East,84,4.0,7.0,96,0.00,,,0.01,Wunderground v.1.15,2013-12-04 16:10:00,
2013-12-04 11:15:00,37.6,36.3,29.75,East,86,5.0,5.0,95,0.00,,,0.01,Wunderground v.1.15,2013-12-04 16:15:00,
2013-12-04 11:20:00,38.0,36.4,29.74,WSW,244,5.0,5.0,94,0.00,,,0.02,Wunderground v.1.15,2013-12-04 16:20:00,
2013-12-04 11:25:00,38.4,36.8,29.73,WSW,244,4.0,4.0,94,0.00,,,0.02,Wunderground v.1.15,2013-12-04 16:25:00,
2013-12-04 11:30:00,39.1,37.2,29.72,WSW,244,2.0,4.0,93,0.00,,,0.02,Wunderground v.1.15,2013-12-04 16:30:00,
2013-12-04 11:35:00,39.7,37.6,29.72,WSW,240,2.0,4.0,92,0.04,,,0.03,Wunderground v.1.15,2013-12-04 16:35:00,
2013-12-04 11:40:00,40.0,37.3,29.72,SW,234,3.0,4.0,90,0.04,,,0.03,Wunderground v.1.15,2013-12-04 16:40:00,
2013-12-04 11:45:00,40.3,37.6,29.71,SW,234,4.0,4.0,90,0.04,,,0.03,Wunderground v.1.15,2013-12-04 16:45:00,
2013-12-04 11:50:00,40.9,37.9,29.70,SW,229,3.0,4.0,89,0.04,,,0.04,Wunderground v.1.15,2013-12-04 16:50:00,
2013-12-04 11:55:00,41.2,37.9,29.70,SW,231,3.0,5.0,88,0.04,,,0.04,Wunderground v.1.15,2013-12-04 16:55:00,
2013-12-04 12:00:00,41.4,37.5,29.70,SW,231,3.0,5.0,86,0.04,,,0.04,Wunderground v.1.15,2013-12-04 17:00:00,
2013-12-04 12:05:00,41.6,38.0,29.70,SW,231,2.0,2.0,87,0.04,,,0.05,Wunderground v.1.15,2013-12-04 17:05:00,
2013-12-04 12:10:00,42.0,38.4,29.70,SW,231,0.0,4.0,87,0.04,,,0.05,Wunderground v.1.15,2013-12-04 17:10:00,
2013-12-04 12:15:00,42.5,38.6,29.70,SW,231,0.0,4.0,86,0.04,,,0.05,Wunderground v.1.15,2013-12-04 17:15:00,
2013-12-04 12:20:00,42.8,38.6,29.70,SW,231,1.0,4.0,85,0.04,,,0.05,Wunderground v.1.15,2013-12-04 17:20:00,
2013-12-04 12:25:00,42.9,38.1,29.70,SW,233,2.0,8.0,83,0.00,,,0.06,Wunderground v.1.15,2013-12-04 17:25:00,
2013-12-04 12:30:00,43.1,38.3,29.70,WSW,252,6.0,9.0,83,0.00,,,0.06,Wunderground v.1.15,2013-12-04 17:30:00,
2013-12-04 12:36:00,43.0,37.9,29.70,WSW,248,9.0,9.0,82,0.06,,,0.07,Wunderground v.1.15,2013-12-04 17:36:00,
2013-12-04 12:41:00,42.9,38.1,29.70,WSW,258,10.0,10.0,83,0.06,,,0.07,Wunderground v.1.15,2013-12-04 17:41:00,
2013-12-04 12:45:00,43.2,38.1,29.70,WSW,246,9.0,9.0,82,0.05,,,0.07,Wunderground v.1.15,2013-12-04 17:45:00,
2013-12-04 12:50:00,43.0,37.9,29.70,WSW,252,7.0,9.0,82,0.04,,,0.08,Wunderground v.1.15,2013-12-04 17:50:00,
2013-12-04 12:55:00,43.0,37.9,29.70,WSW,254,6.0,7.0,82,0.04,,,0.08,Wunderground v.1.15,2013-12-04 17:55:00,
2013-12-04 13:00:00,43.0,37.9,29.70,WSW,258,6.0,7.0,82,0.04,,,0.08,Wunderground v.1.15,2013-12-04 18:00:00,
2013-12-04 13:05:00,43.2,38.4,29.70,WSW,257,6.0,8.0,83,0.00,,,0.08,Wunderground v.1.15,2013-12-04 18:05:00,
2013-12-04 13:10:00,43.6,38.5,29.70,West,268,7.0,8.0,82,0.00,,,0.09,Wunderground v.1.15,2013-12-04 18:10:00,
2013-12-04 13:15:00,44.0,38.5,29.70,WSW,247,8.0,8.0,81,0.00,,,0.09,Wunderground v.1.15,2013-12-04 18:15:00,
2013-12-04 13:20:00,44.2,38.4,29.70,West,263,9.0,9.0,80,0.00,,,0.09,Wunderground v.1.15,2013-12-04 18:20:00,
2013-12-04 13:25:00,44.6,38.8,29.69,West,266,10.0,10.0,80,0.00,,,0.09,Wunderground v.1.15,2013-12-04 18:25:00,
2013-12-04 13:30:00,44.8,38.7,29.69,West,265,11.0,12.0,79,0.00,,,0.09,Wunderground v.1.15,2013-12-04 18:30:00,
2013-12-04 13:35:00,44.9,38.8,29.69,West,271,10.0,11.0,79,0.00,,,0.09,Wunderground v.1.15,2013-12-04 18:35:00,
2013-12-04 13:40:00,45.0,38.9,29.68,WSW,257,10.0,11.0,79,0.00,,,0.10,Wunderground v.1.15,2013-12-04 18:40:00,
2013-12-04 13:45:00,45.2,39.1,29.68,WSW,253,8.0,9.0,79,0.00,,,0.10,Wunderground v.1.15,2013-12-04 18:45:00,
2013-12-04 13:50:00,45.4,38.9,29.67,WSW,252,6.0,9.0,78,0.00,,,0.10,Wunderground v.1.15,2013-12-04 18:50:00,
2013-12-04 13:55:00,45.5,39.4,29.67,SW,226,5.0,10.0,79,0.00,,,0.10,Wunderground v.1.15,2013-12-04 18:55:00,
2013-12-04 14:00:00,45.8,39.3,29.67,SW,235,5.0,10.0,78,0.00,,,0.10,Wunderground v.1.15,2013-12-04 19:00:00,
2013-12-04 14:05:00,45.8,39.0,29.67,SW,231,5.0,6.0,77,0.00,,,0.10,Wunderground v.1.15,2013-12-04 19:05:00,
2013-12-04 14:15:00,45.7,38.9,29.68,West,259,5.0,11.0,77,0.00,,,0.10,Wunderground v.1.15,2013-12-04 19:15:00,
2013-12-04 14:20:00,45.6,39.1,29.67,WSW,250,5.0,11.0,78,0.00,,,0.10,Wunderground v.1.15,2013-12-04 19:20:00,
2013-12-04 14:25:00,45.4,38.9,29.67,WSW,242,7.0,10.0,78,0.00,,,0.10,Wunderground v.1.15,2013-12-04 19:25:00,
2013-12-04 14:30:00,45.1,39.0,29.67,WSW,248,8.0,10.0,79,0.00,,,0.10,Wunderground v.1.15,2013-12-04 19:30:00,
2013-12-04 14:35:00,45.0,38.9,29.67,West,263,9.0,9.0,79,0.00,,,0.11,Wunderground v.1.15,2013-12-04 19:35:00,
2013-12-04 14:45:00,45.0,38.9,29.67,WSW,256,8.0,8.0,79,0.00,,,0.11,Wunderground v.1.15,2013-12-04 19:45:00,
2013-12-04 14:50:00,44.8,38.7,29.68,WSW,257,8.0,8.0,79,0.00,,,0.11,Wunderground v.1.15,2013-12-04 19:50:00,
2013-12-04 14:55:00,44.9,38.8,29.68,WSW,258,8.0,11.0,79,0.00,,,0.11,Wunderground v.1.15,2013-12-04 19:55:00,
2013-12-04 15:00:00,45.0,38.9,29.68,West,266,9.0,11.0,79,0.00,,,0.11,Wunderground v.1.15,2013-12-04 20:00:00,
2013-12-04 15:05:00,44.9,38.8,29.68,West,268,10.0,10.0,79,0.00,,,0.11,Wunderground v.1.15,2013-12-04 20:05:00,
2013-12-04 15:10:00,44.7,38.6,29.69,West,259,9.0,10.0,79,0.00,,,0.11,Wunderground v.1.15,2013-12-04 20:10:00,
2013-12-04 15:20:00,44.5,38.7,29.69,West,265,6.0,8.0,80,0.00,,,0.11,Wunderground v.1.15,2013-12-04 20:20:00,
2013-12-04 15:25:00,44.2,38.4,29.69,West,265,6.0,6.0,80,0.00,,,0.11,Wunderground v.1.15,2013-12-04 20:25:00,
2013-12-04 15:30:00,43.9,38.1,29.69,West,264,5.0,6.0,80,0.00,,,0.11,Wunderground v.1.15,2013-12-04 20:30:00,
2013-12-04 15:35:00,43.6,38.2,29.70,WSW,257,5.0,6.0,81,0.00,,,0.11,Wunderground v.1.15,2013-12-04 20:35:00,
2013-12-04 15:40:00,43.3,38.2,29.70,WSW,256,5.0,6.0,82,0.00,,,0.11,Wunderground v.1.15,2013-12-04 20:40:00,
2013-12-04 15:45:00,43.0,37.9,29.70,WSW,256,6.0,6.0,82,0.00,,,0.11,Wunderground v.1.15,2013-12-04 20:45:00,
2013-12-04 15:50:00,42.7,37.9,29.71,WSW,256,5.0,6.0,83,0.00,,,0.11,Wunderground v.1.15,2013-12-04 20:50:00,
2013-12-04 15:55:00,42.6,37.8,29.71,WSW,256,4.0,4.0,83,0.00,,,0.11,Wunderground v.1.15,2013-12-04 20:55:00,
2013-12-04 16:00:00,42.4,37.9,29.71,WSW,256,3.0,5.0,84,0.00,,,0.11,Wunderground v.1.15,2013-12-04 21:00:00,
2013-12-04 16:05:00,42.3,37.8,29.72,WSW,256,3.0,3.0,84,0.00,,,0.11,Wunderground v.1.15,2013-12-04 21:05:00,
2013-12-04 16:10:00,42.3,38.1,29.72,WSW,256,2.0,4.0,85,0.00,,,0.11,Wunderground v.1.15,2013-12-04 21:10:00,
2013-12-04 16:15:00,42.4,38.2,29.72,WSW,256,1.0,1.0,85,0.00,,,0.11,Wunderground v.1.15,2013-12-04 21:15:00,
2013-12-04 16:20:00,42.6,38.4,29.72,WSW,256,1.0,4.0,85,0.00,,,0.11,Wunderground v.1.15,2013-12-04 21:20:00,
2013-12-04 16:25:00,42.7,38.5,29.72,WSW,256,1.0,1.0,85,0.00,,,0.11,Wunderground v.1.15,2013-12-04 21:25:00,
2013-12-04 16:30:00,42.7,38.2,29.72,WSW,256,1.0,2.0,84,0.00,,,0.11,Wunderground v.1.15,2013-12-04 21:30:00,
2013-12-04 16:35:00,42.5,38.3,29.72,WSW,256,1.0,4.0,85,0.00,,,0.11,Wunderground v.1.15,2013-12-04 21:35:00,
2013-12-04 16:40:00,42.4,38.2,29.72,WSW,256,1.0,4.0,85,0.00,,,0.11,Wunderground v.1.15,2013-12-04 21:40:00,
2013-12-04 16:45:00,42.4,38.5,29.72,WSW,256,1.0,4.0,86,0.00,,,0.11,Wunderground v.1.15,2013-12-04 21:45:00,
2013-12-04 16:51:00,42.4,38.5,29.72,WSW,256,1.0,4.0,86,0.00,,,0.11,Wunderground v.1.15,2013-12-04 21:51:00,
2013-12-04 16:56:00,42.4,38.5,29.72,WSW,256,1.0,4.0,86,0.00,,,0.11,Wunderground v.1.15,2013-12-04 21:56:00,
2013-12-04 17:05:00,42.2,38.3,29.72,WSW,256,3.0,3.0,86,0.00,,,0.11,Wunderground v.1.15,2013-12-04 22:05:00,
2013-12-04 17:10:00,42.1,38.2,29.72,WSW,256,3.0,5.0,86,0.00,,,0.11,Wunderground v.1.15,2013-12-04 22:10:00,
2013-12-04 17:15:00,42.3,38.4,29.72,WSW,256,3.0,3.0,86,0.00,,,0.11,Wunderground v.1.15,2013-12-04 22:15:00,
2013-12-04 17:20:00,42.5,38.6,29.72,WSW,256,3.0,4.0,86,0.00,,,0.11,Wunderground v.1.15,2013-12-04 22:20:00,
2013-12-04 17:25:00,42.3,38.4,29.72,WSW,256,2.0,4.0,86,0.00,,,0.11,Wunderground v.1.15,2013-12-04 22:25:00,
2013-12-04 17:30:00,42.2,38.3,29.72,WSW,256,2.0,4.0,86,0.00,,,0.11,Wunderground v.1.15,2013-12-04 22:30:00,
2013-12-04 17:35:00,42.1,38.5,29.72,WSW,256,3.0,4.0,87,0.00,,,0.11,Wunderground v.1.15,2013-12-04 22:35:00,
2013-12-04 17:40:00,42.4,38.8,29.72,West,264,5.0,5.0,87,0.00,,,0.11,Wunderground v.1.15,2013-12-04 22:40:00,
2013-12-04 17:45:00,42.5,38.6,29.72,West,266,5.0,6.0,86,0.00,,,0.11,Wunderground v.1.15,2013-12-04 22:45:00,
2013-12-04 17:50:00,42.7,38.8,29.72,West,261,6.0,6.0,86,0.00,,,0.11,Wunderground v.1.15,2013-12-04 22:50:00,
2013-12-04 17:55:00,42.5,38.6,29.72,West,261,6.0,6.0,86,0.00,,,0.11,Wunderground v.1.15,2013-12-04 22:55:00,
2013-12-04 18:00:00,42.4,38.5,29.72,West,261,5.0,7.0,86,0.00,,,0.11,Wunderground v.1.15,2013-12-04 23:00:00,
2013-12-04 18:05:00,42.4,38.5,29.72,WSW,252,5.0,6.0,86,0.00,,,0.11,Wunderground v.1.15,2013-12-04 23:05:00,
2013-12-04 18:10:00,42.6,39.0,29.71,WSW,254,7.0,7.0,87,0.00,,,0.11,Wunderground v.1.15,2013-12-04 23:10:00,
2013-12-04 18:15:00,43.1,39.5,29.71,WSW,248,8.0,9.0,87,0.00,,,0.11,Wunderground v.1.15,2013-12-04 23:15:00,
2013-12-04 18:20:00,43.6,39.7,29.71,WSW,246,9.0,9.0,86,0.00,,,0.11,Wunderground v.1.15,2013-12-04 23:20:00,
2013-12-04 18:25:00,43.7,39.5,29.71,WSW,247,6.0,6.0,85,0.00,,,0.11,Wunderground v.1.15,2013-12-04 23:25:00,
2013-12-04 18:30:00,43.6,39.4,29.71,WSW,247,1.0,6.0,85,0.00,,,0.11,Wunderground v.1.15,2013-12-04 23:30:00,
2013-12-04 18:35:00,43.4,39.2,29.71,WSW,247,0.0,4.0,85,0.00,,,0.11,Wunderground v.1.15,2013-12-04 23:35:00,
2013-12-04 18:40:00,43.3,39.1,29.72,WSW,247,0.0,4.0,85,0.00,,,0.11,Wunderground v.1.15,2013-12-04 23:40:00,
2013-12-04 18:45:00,43.1,38.9,29.71,WSW,247,2.0,5.0,85,0.00,,,0.11,Wunderground v.1.15,2013-12-04 23:45:00,
2013-12-04 18:50:00,43.0,39.1,29.71,West,271,5.0,5.0,86,0.00,,,0.11,Wunderground v.1.15,2013-12-04 23:50:00,
2013-12-04 18:55:00,43.5,39.6,29.71,West,271,8.0,8.0,86,0.00,,,0.11,Wunderground v.1.15,2013-12-04 23:55:00,
2013-12-04 19:05:00,43.8,39.6,29.71,WSW,256,10.0,10.0,85,0.00,,,0.11,Wunderground v.1.15,2013-12-05 00:05:00,
2013-12-04 19:10:00,44.1,39.9,29.72,WSW,252,11.0,11.0,85,0.00,,,0.11,Wunderground v.1.15,2013-12-05 00:10:00,
2013-12-04 19:15:00,44.2,39.7,29.72,West,272,11.0,11.0,84,0.00,,,0.11,Wunderground v.1.15,2013-12-05 00:15:00,
2013-12-04 19:20:00,44.0,39.5,29.72,WSW,247,10.0,12.0,84,0.00,,,0.11,Wunderground v.1.15,2013-12-05 00:20:00,
2013-12-04 19:25:00,44.0,39.8,29.72,WSW,255,11.0,11.0,85,0.00,,,0.11,Wunderground v.1.15,2013-12-05 00:25:00,
2013-12-04 19:35:00,43.8,39.6,29.71,WSW,252,11.0,12.0,85,0.00,,,0.11,Wunderground v.1.15,2013-12-05 00:35:00,
2013-12-04 19:40:00,44.0,39.8,29.71,WSW,257,11.0,12.0,85,0.00,,,0.11,Wunderground v.1.15,2013-12-05 00:40:00,
2013-12-04 19:45:00,44.2,40.3,29.71,WSW,252,12.0,12.0,86,0.00,,,0.11,Wunderground v.1.15,2013-12-05 00:45:00,
2013-12-04 19:50:00,44.3,40.4,29.71,WSW,257,12.0,12.0,86,0.00,,,0.11,Wunderground v.1.15,2013-12-05 00:50:00,
2013-12-04 19:55:00,44.5,40.6,29.72,WSW,243,12.0,17.0,86,0.00,,,0.11,Wunderground v.1.15,2013-12-05 00:55:00,
2013-12-04 20:00:00,44.5,40.3,29.72,West,262,13.0,17.0,85,0.00,,,0.11,Wunderground v.1.15,2013-12-05 01:00:00,
2013-12-04 20:05:00,44.3,40.1,29.72,WSW,246,13.0,13.0,85,0.00,,,0.11,Wunderground v.1.15,2013-12-05 01:05:00,
2013-12-04 20:10:00,44.1,39.9,29.72,West,261,13.0,14.0,85,0.00,,,0.11,Wunderground v.1.15,2013-12-05 01:10:00,
2013-12-04 20:15:00,44.0,40.1,29.72,WSW,257,12.0,12.0,86,0.00,,,0.11,Wunderground v.1.15,2013-12-05 01:15:00,
2013-12-04 20:20:00,43.8,39.9,29.72,WSW,251,10.0,12.0,86,0.00,,,0.11,Wunderground v.1.15,2013-12-05 01:20:00,
2013-12-04 20:25:00,43.5,39.9,29.71,WSW,255,8.0,11.0,87,0.00,,,0.11,Wunderground v.1.15,2013-12-05 01:25:00,
2013-12-04 20:30:00,43.4,39.5,29.71,WSW,253,7.0,11.0,86,0.00,,,0.11,Wunderground v.1.15,2013-12-05 01:30:00,
2013-12-04 20:35:00,43.2,39.6,29.71,WSW,251,7.0,9.0,87,0.00,,,0.11,Wunderground v.1.15,2013-12-05 01:35:00,
2013-12-04 20:40:00,43.2,39.6,29.71,West,260,8.0,10.0,87,0.00,,,0.11,Wunderground v.1.15,2013-12-05 01:40:00,
2013-12-04 20:45:00,43.0,39.4,29.70,SW,225,8.0,9.0,87,0.00,,,0.11,Wunderground v.1.15,2013-12-05 01:45:00,
2013-12-04 20:50:00,42.8,39.2,29.70,WSW,238,8.0,9.0,87,0.00,,,0.11,Wunderground v.1.15,2013-12-05 01:50:00,
2013-12-04 20:55:00,42.6,39.3,29.70,SW,236,8.0,8.0,88,0.00,,,0.11,Wunderground v.1.15,2013-12-05 01:55:00,
2013-12-04 21:00:00,42.5,39.2,29.70,WSW,238,8.0,8.0,88,0.00,,,0.11,Wunderground v.1.15,2013-12-05 02:00:00,
2013-12-04 21:05:00,42.5,39.2,29.70,WSW,244,7.0,8.0,88,0.00,,,0.11,Wunderground v.1.15,2013-12-05 02:05:00,
2013-12-04 21:15:00,42.7,39.4,29.70,WSW,238,8.0,8.0,88,0.00,,,0.11,Wunderground v.1.15,2013-12-05 02:15:00,
2013-12-04 21:20:00,42.6,39.0,29.70,SW,232,7.0,8.0,87,0.00,,,0.11,Wunderground v.1.15,2013-12-05 02:20:00,
2013-12-04 21:25:00,42.8,39.5,29.70,West,273,8.0,10.0,88,0.00,,,0.11,Wunderground v.1.15,2013-12-05 02:25:00,
2013-12-04 21:30:00,43.0,39.4,29.70,WSW,240,11.0,17.0,87,0.00,,,0.11,Wunderground v.1.15,2013-12-05 02:30:00,
2013-12-04 21:35:00,43.0,39.4,29.70,West,261,12.0,12.0,87,0.00,,,0.11,Wunderground v.1.15,2013-12-05 02:35:00,
2013-12-04 21:40:00,42.9,39.3,29.70,SW,217,13.0,13.0,87,0.00,,,0.11,Wunderground v.1.15,2013-12-05 02:40:00,
2013-12-04 21:45:00,42.9,39.3,29.70,SW,226,14.0,14.0,87,0.00,,,0.11,Wunderground v.1.15,2013-12-05 02:45:00,
2013-12-04 21:51:00,42.7,39.1,29.70,WSW,248,13.0,14.0,87,0.00,,,0.11,Wunderground v.1.15,2013-12-05 02:51:00,
2013-12-04 21:55:00,42.7,39.4,29.70,WSW,255,12.0,12.0,88,0.00,,,0.11,Wunderground v.1.15,2013-12-05 02:55:00,
2013-12-04 22:00:00,42.7,39.4,29.70,WSW,242,12.0,12.0,88,0.00,,,0.11,Wunderground v.1.15,2013-12-05 03:00:00,
2013-12-04 22:05:00,42.6,39.3,29.70,WSW,252,12.0,12.0,88,0.00,,,0.11,Wunderground v.1.15,2013-12-05 03:05:00,
2013-12-04 22:10:00,42.4,39.1,29.70,WNW,284,13.0,13.0,88,0.00,,,0.11,Wunderground v.1.15,2013-12-05 03:10:00,
2013-12-04 22:15:00,42.3,39.0,29.70,WSW,252,13.0,13.0,88,0.00,,,0.11,Wunderground v.1.15,2013-12-05 03:15:00,
2013-12-04 22:20:00,42.3,39.0,29.70,SW,217,14.0,14.0,88,0.00,,,0.11,Wunderground v.1.15,2013-12-05 03:20:00,
2013-12-04 22:25:00,42.2,38.9,29.70,WSW,258,15.0,22.0,88,0.00,,,0.11,Wunderground v.1.15,2013-12-05 03:25:00,
2013-12-04 22:30:00,42.1,38.8,29.71,WSW,246,16.0,22.0,88,0.00,,,0.11,Wunderground v.1.15,2013-12-05 03:30:00,
2013-12-04 22:35:00,42.2,39.2,29.71,WSW,255,16.0,16.0,89,0.00,,,0.11,Wunderground v.1.15,2013-12-05 03:35:00,
2013-12-04 22:41:00,41.9,38.9,29.71,WSW,242,15.0,16.0,89,0.00,,,0.11,Wunderground v.1.15,2013-12-05 03:41:00,
2013-12-04 22:50:00,41.6,38.9,29.71,SW,235,15.0,17.0,90,0.00,,,0.11,Wunderground v.1.15,2013-12-05 03:50:00,
2013-12-04 22:55:00,41.6,39.2,29.70,WSW,253,16.0,16.0,91,0.00,,,0.11,Wunderground v.1.15,2013-12-05 03:55:00,
2013-12-04 23:00:00,41.6,39.4,29.70,West,263,17.0,18.0,92,0.00,,,0.11,Wunderground v.1.15,2013-12-05 04:00:00,
2013-12-04 23:05:00,41.6,39.4,29.70,West,272,17.0,18.0,92,0.00,,,0.11,Wunderground v.1.15,2013-12-05 04:05:00,
2013-12-04 23:10:00,41.9,40.0,29.70,West,259,17.0,19.0,93,0.00,,,0.11,Wunderground v.1.15,2013-12-05 04:10:00,
2013-12-04 23:15:00,42.0,39.8,29.70,WSW,250,17.0,17.0,92,0.00,,,0.11,Wunderground v.1.15,2013-12-05 04:15:00,
2013-12-04 23:20:00,42.0,40.1,29.70,WSW,248,15.0,17.0,93,0.00,,,0.11,Wunderground v.1.15,2013-12-05 04:20:00,
2013-12-04 23:25:00,42.0,40.1,29.70,West,263,13.0,13.0,93,0.00,,,0.11,Wunderground v.1.15,2013-12-05 04:25:00,
2013-12-04 23:30:00,42.1,40.2,29.71,WSW,238,10.0,13.0,93,0.00,,,0.11,Wunderground v.1.15,2013-12-05 04:30:00,
2013-12-04 23:35:00,42.1,40.2,29.71,WSW,246,8.0,11.0,93,0.00,,,0.11,Wunderground v.1.15,2013-12-05 04:35:00,
2013-12-04 23:40:00,42.3,40.4,29.71,WSW,246,9.0,11.0,93,0.00,,,0.11,Wunderground v.1.15,2013-12-05 04:40:00,
2013-12-04 23:45:00,42.4,40.5,29.71,West,270,11.0,11.0,93,0.00,,,0.11,Wunderground v.1.15,2013-12-05 04:45:00,
2013-12-04 23:50:00,42.4,40.5,29.70,WSW,246,9.0,11.0,93,0.00,,,0.11,Wunderground v.1.15,2013-12-05 04:50:00,
2013-12-04 23:55:00,42.4,40.5,29.70,WSW,245,7.0,7.0,93,0.00,,,0.11,Wunderground v.1.15,2013-12-05 04:55:00,